Regional Weather Roundup
Issued by NWS Mt. Holly, NJ

Home | Current Version | Previous Version | Text Only | Print | Product List | Glossary On
Versions: 1 2 3 4 5 6 7 8 9 10 11 12 13 14 15 16 17 18 19 20 21 22 23 24 25 26 27 28
000
ASUS41 KPHI 212112
RWRPHI

REGIONAL WEATHER ROUNDUP
NATIONAL WEATHER SERVICE MOUNT HOLLY NJ
500 PM EDT SAT OCT 21 2017

NOTE:  "FAIR" INDICATES FEW OR NO CLOUDS BELOW 12,000 FEET WITH NO
SIGNIFICANT WEATHER AND/OR OBSTRUCTIONS TO VISIBILITY.

 * = STATION DOES NOT REPORT PRECIPITATION (E.G. RAIN, SNOW, ETC.)
        OR FOG.

NJZ015>026-212200-
SOUTHERN NEW JERSEY

CITY           SKY/WX    TMP DP  RH WIND       PRES   REMARKS
POMONA         SUNNY     73  43  33 S6        30.33R
WILDWOOD*      SUNNY     71  49  45 S6        30.34R
MILLVILLE      SUNNY     74  48  39 VRB3      30.32S
WRIGHTSTOWN    SUNNY     74  45  35 SW5       30.29S
MOUNT HOLLY    SUNNY     74  43  32 CALM      30.31S
TRENTON        CLOUDY    73  43  33 S5        30.31S

$$
NJZ001>014-212200-
NORTHERN NEW JERSEY

CITY           SKY/WX    TMP DP  RH WIND       PRES   REMARKS
SUSSEX         CLOUDY    74  40  29 SW5       30.31R
ANDOVER*         N/A     72  42  34 CALM      30.32R
MORRISTOWN     PTSUNNY   73  39  29 W6        30.31R
NEWARK         CLOUDY    77  34  21 SW8       30.30R
TETERBORO      MOSUNNY   77  39  25 S8        30.29R
CALDWELL       CLOUDY    75  43  31 CALM      30.30S
SOMERVILLE     CLOUDY    76  46  34 CALM      30.29R
ALLAIRE*       MOSUNNY   71  41  33 SE6       30.33S
TOMS RIVER*      N/A     72  52  49 SE7       30.33R

$$
PAZ043-044-047-054-055-060>062-066>071-212200-
EASTERN PENNSYLVANIA

CITY           SKY/WX    TMP DP  RH WIND       PRES   REMARKS
PHILADELPHIA   PTSUNNY   77  41  27 CALM      30.31S
NORTH PHILA    SUNNY     77  42  28 CALM      30.33S
BLUE BELL*     CLOUDY    72  45  37 CALM      30.33S
DOYLESTOWN     CLOUDY    71  46  40 CALM      30.31S
QUAKERTOWN*    CLOUDY    73  45  35 SW3       30.33S
PERKASIE*      FAIR      68  52  56 CALM      30.34R
POTTSTOWN      CLOUDY    73  44  35 CALM      30.33S
LANCASTER      CLOUDY    74  44  34 CALM      30.32R
COATESVILLE    CLOUDY    72  41  33 CALM      30.34S
READING        CLOUDY    73  45  36 W5        30.31R
ALLENTOWN      CLOUDY    74  51  44 W3        30.32R
MOUNT POCONO   CLOUDY    69  33  26 W7        30.35R
HAZLETON       CLOUDY    72  37  28 CALM      30.37S
LEHIGHTON      FAIR      73  39  29 CALM      30.32S
WILKES BARRE   CLOUDY    73  39  29 SW3       30.32S

$$
DEZALL-MDZ008-012-015-019-020-212200-
DELAWARE AND EASTERN MARYLAND

CITY           SKY/WX    TMP DP  RH WIND       PRES   REMARKS
WILMINGTON     CLOUDY    74  39  28 S5        30.32S
DOVER          SUNNY     69  54  57 E6        30.32R
GEORGETOWN     SUNNY     74  50  42 SE6       30.33R
EASTON         PTSUNNY   75  46  35 W7        30.36R
ABERDEEN       MOSUNNY   70  51  50 SW3       30.33R
PATUXENT       PTSUNNY   72  44  36 SE5       30.32S
OCEAN CITY     SUNNY     68  60  75 SE5       30.34R
WALLOPS ISLAND SUNNY     70  56  61 MISG      30.33S
CAMBRIDGE      SUNNY     75  45  33 SW5       30.32R
SALISBURY      SUNNY     73  50  44 SE9       30.32R

$$
PAZ001-021-NYZ056-072-MDZ011-DCZ001-212200-
OTHER NEARBY LOCATIONS

CITY           SKY/WX    TMP DP  RH WIND       PRES   REMARKS
HARRISBURG     CLOUDY    68  55  63 W3        30.31R
STATE COLLEGE  SUNNY     70  41  35 CALM      30.32S
WILLIAMSPORT   CLOUDY    69  51  52 SE3       30.30S
BINGHAMTON     CLOUDY    69  38  32 SW3       30.32S
NEW YORK CITY  MOSUNNY   73  41  31 VRB3      30.33R
BALTIMORE      PTSUNNY   72  43  35 E7        30.32S
WASHINGTON DC  PTSUNNY   75  44  33 S6        30.32S

$$




USA.gov is the U.S. government's official web portal to all federal, state and local government web resources and services.